Change the Weather History Date:

Thursday, March 27, 2014

  Actual Average Record
Temperature  
Mean Temperature 32 °F 35 °F  
Max Temperature 40 °F 47 °F 68 °F (2015)
Min Temperature 23 °F 23 °F -10 °F (1955)
Degree Days  
Heating Degree Days 33 30  
Month to date heating degree days 943 923  
Since 1 July heating degree days 7321 7492  
Cooling Degree Days 0 0  
Month to date cooling degree days 0 0  
Year to date cooling degree days 0 0  
Moisture  
Dew Point 24 °F    
Average Humidity 70    
Maximum Humidity 92    
Minimum Humidity 48    
Precipitation  
Precipitation 0.01 in 0.03 in 0.48 in (1916)
Month to date precipitation 0.80 0.64  
Year to date precipitation 1.66 1.54  
Sea Level Pressure  
Sea Level Pressure 29.66 in    
Wind  
Wind Speed 6 mph (West)    
Max Wind Speed 21 mph    
Max Gust Speed 27 mph    
Visibility 8 miles    
Events Snow    
T = Trace of Precipitation, MM = Missing Value Source: NWS Daily Summary

Daily Weather History Graph

Daily Weather History Graph

Search for Another Location

Airport or City:

Trip Planner

Search our weather history database for the weather conditions in past years. The results will help you decide how hot, cold, wet, or windy it might be!

Date:

Astronomy

Mar. 27, 2014 Rise Set
Actual Time 7:19 AM MDT 7:52 PM MDT
Civil Twilight 6:49 AM MDT 8:22 PM MDT
Nautical Twilight 6:13 AM MDT 8:57 PM MDT
Astronomical Twilight 5:37 AM MDT 9:34 PM MDT
Moon 5:23 AM MDT (3/27) 4:34 PM MDT (3/27)
Length of Visible Light 13h 32m
Length of Day
12h 32m
Waning Crescent, 12% of the Moon is Illuminated
Mar 27
Waning Crescent
Mar 30
New
Apr 7
First Quarter
Apr 15
Full
Apr 22
Last Quarter

Hourly Weather History & Observations

Time (MDT) Temp. Windchill Dew Point Humidity Pressure Visibility Wind Dir Wind Speed Gust Speed Precip Events Conditions
12:53 AM 27.0 °F 19.5 °F 24.1 °F 89% 29.60 in 10.0 mi ESE 6.9 mph - N/A   Mostly Cloudy
1:53 AM 27.0 °F 23.0 °F 24.1 °F 89% 29.61 in 10.0 mi South 3.5 mph - N/A   Mostly Cloudy
2:53 AM 26.1 °F 20.5 °F 23.0 °F 88% 29.62 in 10.0 mi South 4.6 mph - N/A   Partly Cloudy
3:53 AM 25.0 °F 20.7 °F 21.9 °F 88% 29.63 in 10.0 mi South 3.5 mph - N/A   Partly Cloudy
4:53 AM 24.1 °F 16.0 °F 21.0 °F 88% 29.64 in 10.0 mi ESE 6.9 mph - N/A   Scattered Clouds
5:53 AM 24.1 °F - 21.0 °F 88% 29.62 in 10.0 mi Calm Calm - N/A   Overcast
6:53 AM 25.0 °F - 21.0 °F 85% 29.60 in 10.0 mi Calm Calm - N/A   Clear
7:53 AM 26.1 °F - 21.9 °F 84% 29.60 in 10.0 mi Calm Calm - N/A   Overcast
8:53 AM 28.9 °F - 24.1 °F 82% 29.61 in 10.0 mi Calm Calm - N/A   Mostly Cloudy
9:53 AM 34.0 °F 26.0 °F 26.1 °F 73% 29.58 in 10.0 mi SSE 10.4 mph - N/A   Scattered Clouds
10:53 AM 36.0 °F 30.3 °F 25.0 °F 64% 29.60 in 10.0 mi WSW 6.9 mph - N/A   Overcast
11:53 AM 37.9 °F 32.7 °F 23.0 °F 55% 29.61 in 10.0 mi West 6.9 mph - N/A   Overcast
12:53 PM 39.0 °F 29.9 °F 23.0 °F 53% 29.62 in 10.0 mi NW 17.3 mph 23.0 mph N/A   Mostly Cloudy
1:46 PM 34.0 °F 23.4 °F 26.1 °F 73% 29.60 in 1.8 mi NW 17.3 mph 25.3 mph 0.00 in Snow Light Snow
1:53 PM 32.0 °F 23.6 °F 28.0 °F 85% 29.69 in 1.0 mi WNW 10.4 mph - 0.00 in Snow Light Snow
1:58 PM 33.1 °F 24.9 °F 28.0 °F 82% 29.62 in 2.5 mi NW 10.4 mph - 0.00 in Snow Light Snow
2:09 PM 33.1 °F 27.7 °F 28.0 °F 82% 29.61 in 5.0 mi West 5.8 mph - 0.00 in Snow Light Snow
2:40 PM 35.1 °F 27.4 °F 26.1 °F 70% 29.61 in 1.8 mi WNW 10.4 mph - 0.00 in Snow Light Snow
2:50 PM 35.6 °F 28.0 °F 26.6 °F 70% 29.61 in 3.0 mi NW 10.4 mph - 0.00 in Snow Light Snow
2:53 PM 35.1 °F 26.9 °F 27.0 °F 72% 29.67 in 6.0 mi NW 11.5 mph - 0.00 in Snow Light Snow
3:10 PM 37.0 °F 31.6 °F 25.0 °F 62% 29.61 in 10.0 mi Variable 6.9 mph - 0.00 in   Overcast
3:53 PM 37.9 °F 30.5 °F 21.9 °F 53% 29.68 in 9.0 mi WNW 11.5 mph - 0.01 in Snow Light Snow
4:53 PM 37.9 °F 30.9 °F 21.9 °F 53% 29.70 in 10.0 mi NW 10.4 mph - 0.00 in   Scattered Clouds
5:53 PM 37.9 °F 32.7 °F 19.9 °F 48% 29.71 in 10.0 mi WNW 6.9 mph - N/A   Overcast
6:53 PM 37.9 °F 33.5 °F 19.0 °F 47% 29.73 in 10.0 mi West 5.8 mph - N/A   Overcast
7:30 PM 35.1 °F 31.0 °F 23.0 °F 61% 29.69 in 10.0 mi SW 4.6 mph - 0.00 in   Overcast
7:53 PM 34.0 °F 27.2 °F 24.1 °F 67% 29.78 in 10.0 mi South 8.1 mph - 0.00 in   Mostly Cloudy
8:53 PM 33.1 °F 28.7 °F 21.9 °F 64% 29.80 in 10.0 mi East 4.6 mph - N/A   Scattered Clouds
9:53 PM 32.0 °F 27.5 °F 19.9 °F 61% 29.80 in 10.0 mi SW 4.6 mph - N/A   Clear
10:53 PM 32.0 °F 26.4 °F 21.9 °F 66% 29.83 in 10.0 mi NNW 5.8 mph - N/A   Mostly Cloudy
11:53 PM 32.0 °F - 21.9 °F 66% 29.84 in 10.0 mi Calm Calm - N/A   Overcast